Home   Weather   Cali   Past weeks

Flag for Colombia Past Weather in Cali, Colombia — Yesterday and Last 2 Weeks

Now
81 °F

Scattered clouds.


Feels Like: 83 °F
Forecast: 69 / 82 °F
Wind: 3 mph from Northwest

Location: Cali / Alfonso Bonillaaragon

Current Time: Sep 29, 2016 at 10:25:10 AM

Latest Report: Sep 29, 2016 at 10:00 AM


Visibility: N/A

Pressure: 30.09 "Hg (26.99 "Hg at 955m altitude)

Humidity: 62%

Dew Point: 66 °F

Location of CaliLocation

Past Weather in Cali — Graph

°F

Cali Temperature Yesterday

Maximum temperature yesterday: 86 °F (at 3:00 PM)
Minimum temperature yesterday: 68 °F (at 1:00 AM)
Average temperature yesterday: 76 °F

High & Low Weather Summary for the Past Weeks

 TemperatureHumidityPressure
High91 °F (Sep 20, 2:00 PM)100% (Sep 14, 9:00 PM)30.13 "Hg (Sep 14, 9:00 PM)
Low63 °F (Sep 16, 6:00 AM)33% (Sep 16, 5:00 PM)29.81 "Hg (Sep 20, 4:00 PM)
Average76 °F75%29.97 "Hg
* Reported Sep 14 9:00 AM — Sep 29 9:00 AM, Cali, Weather by CustomWeather, © 2016

Note: Actual official high and low records may vary slightly from our data, if they occured in-between our weather recording intervals... More about our weather records

Advertising

Cali Weather History for the Previous 24 Hours

Scroll right to see more
 ConditionsComfort  
Time TempWeatherWind HumidityBarometerVisibility
9:00 AM
Thu, Sep 29
81 °FScattered clouds.5 mph66%30.09 "HgN/A
8:00 AM75 °FScattered clouds.3 mph78%30.08 "HgN/A
7:00 AM70 °FScattered clouds.3 mph88%30.03 "HgN/A
6:00 AM66 °FScattered clouds.3 mph94%30.02 "HgN/A
5:00 AM68 °FPassing clouds.3 mph94%30.00 "HgN/A
4:00 AM66 °FClear.3 mph94%29.99 "HgN/A
3:00 AM68 °FClear.6 mph94%29.98 "HgN/A
2:00 AM70 °FPassing clouds.7 mph88%29.99 "HgN/A
1:00 AM70 °FPassing clouds.7 mph88%30.01 "HgN/A
12:00 AM70 °FPassing clouds.7 mph88%30.01 "HgN/A
11:00 PM
Wed, Sep 28
72 °FPassing clouds.8 mph83%30.02 "HgN/A
10:00 PM72 °FPassing clouds.9 mph83%30.00 "HgN/A
9:00 PM73 °FPassing clouds.7 mph78%29.99 "HgN/A
8:00 PM73 °FPassing clouds.7 mph78%29.97 "HgN/A
7:00 PM77 °FPassing clouds.7 mph69%29.94 "HgN/A
6:00 PM79 °FPassing clouds.10 mph65%29.92 "HgN/A
5:00 PM82 °FPassing clouds.12 mph58%29.90 "HgN/A
4:00 PM84 °FBroken clouds.5 mph55%29.91 "Hg6 mi
3:00 PM86 °FBroken clouds.6 mph55%29.92 "HgN/A
2:00 PM84 °FBroken clouds.6 mph58%29.95 "HgN/A
1:00 PM82 °FBroken clouds.6 mph58%29.99 "HgN/A
12:00 PM84 °FScattered clouds.5 mph55%30.02 "HgN/A
11:00 AM82 °FBroken clouds.3 mph62%30.05 "HgN/A
10:00 AM79 °FBroken clouds.3 mph70%30.08 "Hg6 mi
Weather by CustomWeather, © 2016

See weather overviewHow to use our weather pages